Radarsat Rocket - Orbit

View from above orbital plane
View from above orbital plane
View from above satellite
View from above satellite

Ground track
Ground track

The orbit data is extracted from the following two-line orbital elements,

1 23711U 95059B   13139.50524375 -.00000051  00000-0 -18499-4 0  3739
2 23711 100.4067 126.7709 0368847 095.4513 010.8997 13.12622105840345
Epoch (UTC): 19 May 2013 12:07:33
Eccentricity: 0.0368847
inclination: 100.4067°
perigee height: 933 km
apogee height: 1493 km
right ascension of ascending node: 126.7709°
argument of perigee: 95.4513°
revolutions per day: 13.12622105
mean anomaly at epoch: 10.8997°
orbit number at epoch: 84034

The dashed part of the orbit path shows where the satellite is in the earth's shadow,  

Developed and maintained by Chris Peat, Heavens-Above GmbH. Please read the updated FAQ before sending e-mail. Imprint. DLR